Location: Coyote Lake
(37.1190°N, 121.5480°W)
Time: 11:18:06
(UTC-08:00)

Hubble Space Telescope - Visible Passes

Search period start: 21 November 2017 00:00
Search period end: 01 December 2017 00:00
Orbit: 537 x 541 km, 28.5° (Epoch: 20 November)

Date Brightness Start Highest point End Pass type
(mag) Time Alt. Az. Time Alt. Az. Time Alt. Az.
21 Nov 3.4 04:11:14 15° SE 04:11:14 15° SE 04:12:23 10° ESE visible
21 Nov 2.6 05:46:36 10° WSW 05:49:54 23° S 05:53:13 10° SE visible
22 Nov 3.8 04:01:41 12° SE 04:01:41 12° SE 04:02:12 10° ESE visible
22 Nov 2.6 05:37:03 13° SW 05:39:36 22° S 05:42:50 10° SE visible
23 Nov 2.6 05:27:28 16° SW 05:29:18 21° S 05:32:24 10° SE visible
24 Nov 2.7 05:17:54 17° SSW 05:18:59 19° SSW 05:21:54 10° SSE visible
25 Nov 2.8 05:08:19 16° SSW 05:08:41 17° SSW 05:11:19 10° SSE visible
26 Nov 3.1 04:58:45 14° S 04:58:45 14° S 05:00:36 10° SSE visible
27 Nov 3.4 04:49:12 11° S 04:49:12 11° S 04:49:40 10° S visible
